Location: Ettringen
(48.1054°N, 10.6545°E)
Time: 04:10:24
(UTC+00:00)

YAOGAN 1 - Visible Passes

Search period start: 19 February 2026 00:00
Search period end: 01 March 2026 00:00
Orbit: 605 x 607 km, 97.8° (Epoch: 18 February)

Date Brightness Start Highest point End Pass type
(mag) Time Alt. Az. Time Alt. Az. Time Alt. Az.
19 Feb 2.5 17:35:43 10° SSE 17:39:58 87° ENE 17:44:15 10° NNW visible
19 Feb 6.0 19:15:43 10° W 19:16:25 10° W 19:17:08 10° WNW visible
20 Feb 6.2 05:19:07 10° ENE 05:20:40 12° E 05:22:12 10° ESE visible
20 Feb 2.9 17:48:33 10° S 17:52:47 69° WSW 17:57:03 10° NNW visible
21 Feb 5.8 05:31:02 10° NE 05:33:38 16° E 05:36:14 10° SE visible
21 Feb 3.5 18:01:29 10° S 18:05:37 51° W 18:09:48 10° NNW visible
22 Feb 4.1 18:14:32 10° SSW 18:18:29 37° W 18:22:28 10° NNW visible
23 Feb 4.7 18:27:42 10° SSW 18:31:23 28° W 18:35:05 10° NW visible
24 Feb 5.2 18:41:01 10° SW 18:44:17 21° W 18:47:34 10° NW visible
25 Feb 5.6 18:54:33 10° SW 18:57:13 16° W 18:59:53 10° NW visible
26 Feb 2.5 17:29:33 10° SSE 17:33:48 76° ENE 17:38:04 10° N visible
26 Feb 5.9 19:08:30 10° WSW 19:10:10 12° W 19:11:50 10° WNW visible
27 Feb 6.5 05:14:11 10° E 05:14:24 10° E 05:14:38 10° E visible
27 Feb 2.7 17:42:20 10° S 17:46:35 80° WSW 17:50:53 10° NNW visible
28 Feb 6.0 05:25:10 10° ENE 05:27:23 14° E 05:29:34 10° ESE visible
28 Feb 3.2 17:55:13 10° S 17:59:24 59° W 18:03:38 10° NNW visible
